"Period start","avg(HW err(1)/warn(2) (#))","avg(Visibility (m))","avg(Weather code (#))","avg(Precip intensity (mm/h))","min(HW err(1)/warn(2) (#))","max(HW err(1)/warn(2) (#))","std(HW err(1)/warn(2) (#))","med(HW err(1)/warn(2) (#))","min(Visibility (m))","max(Visibility (m))","std(Visibility (m))","med(Visibility (m))","min(Weather code (#))","max(Weather code (#))","std(Weather code (#))","med(Weather code (#))","min(Precip intensity (mm/h))","max(Precip intensity (mm/h))","std(Precip intensity (mm/h))","med(Precip intensity (mm/h))"
2013-07-15 00:00:00,2,4928,24,0.00,2,2,0,2,2584,10360,2160,4618,20,34,6,20,0.00,0.00,0.00,0.00
2013-07-15 00:10:00,2,14369,20,0.00,2,2,0,2,8542,21122,4294,14226,20,20,0,20,0.00,0.00,0.00,0.00
2013-07-15 00:20:00,2,9049,20,0.00,2,2,0,2,6028,11648,1833,9276,20,20,0,20,0.00,0.00,0.00,0.00
2013-07-15 00:30:00,2,7872,20,0.00,2,2,0,2,3983,15544,3518,6816,20,20,0,20,0.00,0.00,0.00,0.00
2013-07-15 00:40:00,2,7446,20,0.00,2,2,0,2,4297,10553,1911,7196,20,20,0,20,0.00,0.00,0.00,0.00
2013-07-15 00:50:00,2,7601,20,0.00,2,2,0,2,2722,17783,5019,5552,20,20,0,20,0.00,0.00,0.00,0.00
2013-07-15 01:00:00,2,4358,13,0.00,2,2,0,2,2646,7792,1475,4194,10,20,5,10,0.00,0.00,0.00,0.00
2013-07-15 01:10:00,2,27004,8,0.00,2,2,0,2,8296,50000,12025,25546,0,10,4,10,0.00,0.00,0.00,0.00
2013-07-15 01:20:00,2,43810,0,0.00,2,2,0,2,34669,50000,5637,42848,0,0,0,0,0.00,0.00,0.00,0.00
2013-07-15 01:30:00,2,46750,0,0.00,2,2,0,2,35340,50000,5526,49276,0,0,0,0,0.00,0.00,0.00,0.00
2013-07-15 01:40:00,2,30477,0,0.00,2,2,0,2,23019,50000,7245,28356,0,0,0,0,0.00,0.00,0.00,0.00
2013-07-15 01:50:00,2,27813,0,0.00,2,2,0,2,21285,34793,3804,27695,0,0,0,0,0.00,0.00,0.00,0.00
2013-07-15 02:00:00,2,13696,0,0.00,2,2,0,2,7529,20358,4025,14666,0,0,0,0,0.00,0.00,0.00,0.00
2013-07-15 02:10:00,2,15610,0,0.00,2,2,0,2,7567,29828,7460,13519,0,0,0,0,0.00,0.00,0.00,0.00
2013-07-15 02:20:00,2,6773,6,0.00,2,2,0,2,2302,12092,2936,6893,0,10,5,10,0.00,0.00,0.00,0.00
2013-07-15 02:30:00,2,2853,10,0.00,2,2,0,2,1243,4143,846,2959,10,10,0,10,0.00,0.00,0.00,0.00
2013-07-15 02:40:00,2,2774,10,0.00,2,2,0,2,1193,6330,1616,2324,10,10,0,10,0.00,0.00,0.00,0.00
2013-07-15 02:50:00,2,7572,10,0.00,2,2,0,2,2285,14656,4820,5196,10,10,0,10,0.00,0.00,0.00,0.00
2013-07-15 03:00:00,2,2828,10,0.00,2,2,0,2,1527,5543,1094,2507,10,10,0,10,0.00,0.00,0.00,0.00
2013-07-15 03:10:00,2,2228,10,0.00,2,2,0,2,1051,5906,1422,1647,10,10,0,10,0.00,0.00,0.00,0.00
2013-07-15 03:20:00,2,856,17,0.00,2,2,0,2,570,1460,245,768,10,33,10,10,0.00,0.00,0.00,0.00
2013-07-15 03:30:00,2,931,33,0.00,2,2,0,2,534,1327,253,930,33,33,0,33,0.00,0.00,0.00,0.00
2013-07-15 03:40:00,2,655,33,0.00,2,2,0,2,403,1124,204,670,33,33,0,33,0.00,0.00,0.00,0.00
2013-07-15 03:50:00,2,664,33,0.00,2,2,0,2,378,881,178,726,33,33,0,33,0.00,0.00,0.00,0.00
2013-07-15 04:00:00,2,533,33,0.00,2,2,0,2,349,763,122,558,33,33,0,33,0.00,0.00,0.00,0.00
2013-07-15 04:10:00,2,2646,33,0.00,2,2,0,2,498,7904,2325,1597,33,33,0,33,0.00,0.00,0.00,0.00
2013-07-15 04:20:00,2,17460,21,0.00,2,2,0,2,1569,50000,15222,10746,20,33,4,20,0.00,0.00,0.00,0.00
2013-07-15 04:30:00,2,26713,20,0.00,2,2,0,2,2692,50000,21126,26586,20,20,0,20,0.00,0.00,0.00,0.00
2013-07-15 04:40:00,2,4707,20,0.00,2,2,0,2,891,15494,4230,2874,20,20,0,20,0.00,0.00,0.00,0.00
2013-07-15 04:50:00,2,2200,20,0.00,2,2,0,2,684,6135,1490,1980,20,20,0,20,0.00,0.00,0.00,0.00
2013-07-15 05:00:00,2,4691,20,0.00,2,2,0,2,1295,15076,3927,3615,20,20,0,20,0.00,0.00,0.00,0.00
2013-07-15 05:10:00,2,1389,20,0.00,2,2,0,2,593,3079,805,1052,20,20,0,20,0.00,0.00,0.00,0.00
2013-07-15 05:20:00,2,1254,34,0.00,2,2,0,2,429,2186,620,1230,34,34,0,34,0.00,0.00,0.00,0.00
2013-07-15 05:30:00,2,1866,24,0.00,2,2,0,2,653,5280,1317,1259,20,34,6,20,0.00,0.00,0.00,0.00
2013-07-15 05:40:00,2,3390,20,0.00,2,2,0,2,1720,6585,1490,3342,20,20,0,20,0.00,0.00,0.00,0.00
2013-07-15 05:50:00,2,20017,20,0.00,2,2,0,2,5579,46482,14215,16992,20,20,0,20,0.00,0.00,0.00,0.00
2013-07-15 06:00:00,2,19612,20,0.00,2,2,0,2,12356,30673,5794,19512,20,20,0,20,0.00,0.00,0.00,0.00
2013-07-15 06:10:00,2,17908,20,0.00,2,2,0,2,3958,45068,13854,12052,20,20,0,20,0.00,0.00,0.00,0.00
2013-07-15 06:20:00,2,6553,20,0.00,2,2,0,2,2980,13729,3985,4720,20,20,0,20,0.00,0.00,0.00,0.00
2013-07-15 06:30:00,2,4503,14,0.00,2,2,0,2,757,10964,2677,3902,10,20,5,10,0.00,0.00,0.00,0.00
2013-07-15 06:40:00,2,1734,10,0.00,2,2,0,2,1013,3387,776,1314,10,10,0,10,0.00,0.00,0.00,0.00
2013-07-15 06:50:00,2,1711,10,0.00,2,2,0,2,781,3442,677,1638,10,10,0,10,0.00,0.00,0.00,0.00
2013-07-15 07:00:00,2,2196,10,0.00,2,2,0,2,988,4963,1039,1986,10,10,0,10,0.00,0.00,0.00,0.00
2013-07-15 07:10:00,2,1821,10,0.00,2,2,0,2,1033,3405,783,1616,10,10,0,10,0.00,0.00,0.00,0.00
2013-07-15 07:20:00,2,1429,10,0.00,2,2,0,2,704,2438,529,1312,10,10,0,10,0.00,0.00,0.00,0.00
2013-07-15 07:30:00,2,5040,10,0.00,2,2,0,2,2494,9106,1963,5196,10,10,0,10,0.00,0.00,0.00,0.00
2013-07-15 07:40:00,2,8147,10,0.00,2,2,0,2,4449,13034,2681,7058,10,10,0,10,0.00,0.00,0.00,0.00
2013-07-15 07:50:00,2,11334,10,0.00,2,2,0,2,4742,21648,5289,11336,10,10,0,10,0.00,0.00,0.00,0.00
2013-07-15 08:00:00,2,27108,3,0.00,2,2,0,2,16175,43467,9556,23825,0,10,5,0,0.00,0.00,0.00,0.00
2013-07-15 08:10:00,2,9181,2,0.00,2,2,0,2,1837,20538,5947,9173,0,10,4,0,0.00,0.00,0.00,0.00
2013-07-15 08:20:00,2,1627,10,0.00,2,2,0,2,885,3772,816,1402,10,10,0,10,0.00,0.00,0.00,0.00
2013-07-15 08:30:00,2,1106,14,0.00,2,2,0,2,655,1990,377,1027,10,30,8,10,0.00,0.00,0.00,0.00
2013-07-15 08:40:00,2,1688,27,0.00,2,2,0,2,1055,3182,774,1307,20,30,5,30,0.00,0.00,0.00,0.00
2013-07-15 08:50:00,2,7484,20,0.00,2,2,0,2,2445,26949,7894,3738,20,20,0,20,0.00,0.00,0.00,0.00
2013-07-15 09:00:00,2,31523,20,0.00,2,2,0,2,14888,44363,8200,31630,20,20,0,20,0.00,0.00,0.00,0.00
2013-07-15 09:10:00,2,50000,20,0.00,2,2,0,2,50000,50000,0,50000,20,20,0,20,0.00,0.00,0.00,0.00
2013-07-15 09:20:00,2,47078,20,0.00,2,2,0,2,38060,50000,3772,48912,20,20,0,20,0.00,0.00,0.00,0.00
2013-07-15 09:30:00,2,48046,20,0.00,2,2,0,2,40501,50000,3713,50000,20,20,0,20,0.00,0.00,0.00,0.00
2013-07-15 09:40:00,2,48661,14,0.00,2,2,0,2,41303,50000,2599,50000,0,20,9,20,0.00,0.00,0.00,0.00
2013-07-15 09:50:00,2,49673,0,0.00,2,2,0,2,46987,50000,899,50000,0,0,0,0,0.00,0.00,0.00,0.00
2013-07-15 10:00:00,2,47114,0,0.00,2,2,0,2,39170,50000,3305,48422,0,0,0,0,0.00,0.00,0.00,0.00
2013-07-15 10:10:00,2,48466,0,0.00,2,2,0,2,43069,50000,2371,49998,0,0,0,0,0.00,0.00,0.00,0.00
2013-07-15 10:20:00,2,49542,0,0.00,2,2,0,2,48170,50000,635,50000,0,0,0,0,0.00,0.00,0.00,0.00
2013-07-15 10:30:00,2,32992,0,0.00,2,2,0,2,12237,50000,13321,35531,0,0,0,0,0.00,0.00,0.00,0.00
2013-07-15 10:40:00,2,48154,0,0.00,2,2,0,2,42453,50000,2711,50000,0,0,0,0,0.00,0.00,0.00,0.00
2013-07-15 10:50:00,2,50000,0,0.00,2,2,0,2,50000,50000,0,50000,0,0,0,0,0.00,0.00,0.00,0.00
2013-07-15 11:00:00,2,49749,0,0.00,2,2,0,2,48103,50000,557,50000,0,0,0,0,0.00,0.00,0.00,0.00
2013-07-15 11:10:00,2,49774,0,0.00,2,2,0,2,47742,50000,677,50000,0,0,0,0,0.00,0.00,0.00,0.00
2013-07-15 11:20:00,2,50000,0,0.00,2,2,0,2,50000,50000,0,50000,0,0,0,0,0.00,0.00,0.00,0.00
2013-07-15 11:30:00,2,49430,0,0.00,2,2,0,2,45689,50000,1309,50000,0,0,0,0,0.00,0.00,0.00,0.00
2013-07-15 11:40:00,2,50000,0,0.00,2,2,0,2,50000,50000,0,50000,0,0,0,0,0.00,0.00,0.00,0.00
2013-07-15 11:50:00,2,49619,0,0.00,2,2,0,2,46194,50000,1142,50000,0,0,0,0,0.00,0.00,0.00,0.00
2013-07-15 12:00:00,2,49625,0,0.00,2,2,0,2,46429,50000,1067,50000,0,0,0,0,0.00,0.00,0.00,0.00
2013-07-15 12:10:00,2,50000,0,0.00,2,2,0,2,50000,50000,0,50000,0,0,0,0,0.00,0.00,0.00,0.00
2013-07-15 12:20:00,2,50000,0,0.00,2,2,0,2,50000,50000,0,50000,0,0,0,0,0.00,0.00,0.00,0.00
2013-07-15 12:30:00,2,50000,0,0.00,2,2,0,2,50000,50000,0,50000,0,0,0,0,0.00,0.00,0.00,0.00
2013-07-15 12:40:00,2,50000,0,0.00,2,2,0,2,50000,50000,0,50000,0,0,0,0,0.00,0.00,0.00,0.00
2013-07-15 12:50:00,2,49745,0,0.00,2,2,0,2,48505,50000,519,50000,0,0,0,0,0.00,0.00,0.00,0.00
2013-07-15 13:00:00,2,49747,0,0.00,2,2,0,2,48441,50000,523,50000,0,0,0,0,0.00,0.00,0.00,0.00
2013-07-15 13:10:00,2,43365,0,0.00,2,2,0,2,9596,50000,13452,50000,0,0,0,0,0.00,0.00,0.00,0.00
2013-07-15 13:20:00,2,24810,0,0.00,2,2,0,2,6714,50000,17058,18122,0,0,0,0,0.00,0.00,0.00,0.00
2013-07-15 13:30:00,2,4499,6,0.00,2,2,0,2,498,12665,4184,2934,0,10,5,10,0.00,0.00,0.00,0.00
2013-07-15 13:40:00,2,358,29,0.00,2,2,0,2,293,449,47,350,10,34,10,34,0.00,0.00,0.00,0.00
2013-07-15 13:50:00,2,264,34,0.00,2,2,0,2,172,418,79,226,34,34,0,34,0.00,0.00,0.00,0.00
2013-07-15 14:00:00,2,523,34,0.00,2,2,0,2,301,711,139,566,34,34,0,34,0.00,0.00,0.00,0.00
2013-07-15 14:10:00,2,1224,34,0.00,2,2,0,2,607,2937,731,882,34,34,0,34,0.00,0.00,0.00,0.00
2013-07-15 14:20:00,2,38754,24,0.00,2,2,0,2,7928,50000,16537,50000,20,34,6,20,0.00,0.00,0.00,0.00
2013-07-15 14:30:00,2,49963,20,0.00,2,2,0,2,49628,50000,112,50000,20,20,0,20,0.00,0.00,0.00,0.00
2013-07-15 14:40:00,2,50000,20,0.00,2,2,0,2,50000,50000,0,50000,20,20,0,20,0.00,0.00,0.00,0.00
2013-07-15 14:50:00,2,50000,20,0.00,2,2,0,2,50000,50000,0,50000,20,20,0,20,0.00,0.00,0.00,0.00
2013-07-15 15:00:00,2,50000,20,0.00,2,2,0,2,50000,50000,0,50000,20,20,0,20,0.00,0.00,0.00,0.00
2013-07-15 15:10:00,2,50000,20,0.00,2,2,0,2,50000,50000,0,50000,20,20,0,20,0.00,0.00,0.00,0.00
2013-07-15 15:20:00,2,50000,6,0.00,2,2,0,2,50000,50000,0,50000,0,20,9,0,0.00,0.00,0.00,0.00
2013-07-15 15:30:00,2,49909,0,0.00,2,2,0,2,49087,50000,274,50000,0,0,0,0,0.00,0.00,0.00,0.00
2013-07-15 15:40:00,2,39813,1,0.00,2,2,0,2,699,50000,19275,50000,0,10,3,0,0.00,0.00,0.00,0.00
2013-07-15 15:50:00,2,1140,19,0.00,2,2,0,2,617,2693,597,872,10,34,11,10,0.00,0.00,0.00,0.00
2013-07-15 16:00:00,2,719,34,0.00,2,2,0,2,466,1322,233,698,30,34,1,34,0.00,0.00,0.00,0.00
2013-07-15 16:10:00,2,377,34,0.00,2,2,0,2,249,575,110,354,34,34,0,34,0.00,0.00,0.00,0.00
2013-07-15 16:20:00,2,256,34,0.00,2,2,0,2,225,315,28,251,34,34,0,34,0.00,0.00,0.00,0.00
2013-07-15 16:30:00,2,242,34,0.00,2,2,0,2,224,256,11,244,34,34,0,34,0.00,0.00,0.00,0.00
2013-07-15 16:40:00,2,349,34,0.00,2,2,0,2,233,681,156,270,34,34,0,34,0.00,0.00,0.00,0.00
2013-07-15 16:50:00,2,298,34,0.00,2,2,0,2,227,400,53,292,34,34,0,34,0.00,0.00,0.00,0.00
2013-07-15 17:00:00,2,240,34,0.00,2,2,0,2,231,255,7,238,33,34,0,34,0.00,0.00,0.00,0.00
2013-07-15 17:10:00,2,222,33,0.00,2,2,0,2,201,244,13,220,33,33,0,33,0.00,0.00,0.00,0.00
2013-07-15 17:20:00,2,283,33,0.00,2,2,0,2,237,321,25,280,33,33,0,33,0.00,0.00,0.00,0.00
2013-07-15 17:30:00,2,237,33,0.00,2,2,0,2,144,320,55,254,33,33,0,33,0.00,0.00,0.00,0.00
2013-07-15 17:40:00,2,126,35,0.02,2,2,0,2,97,156,20,128,30,41,4,34,0.00,0.10,0.03,0.00
2013-07-15 17:50:00,2,179,69,0.03,2,2,0,2,110,279,59,174,34,77,16,77,0.00,0.05,0.02,0.05
2013-07-15 18:00:00,2,220,34,0.00,2,2,0,2,199,260,17,216,34,34,0,34,0.00,0.00,0.00,0.00
2013-07-15 18:10:00,2,1717,33,0.00,2,2,0,2,314,3871,1312,1006,33,33,0,33,0.00,0.00,0.00,0.00
2013-07-15 18:20:00,2,26807,30,0.00,2,2,0,2,804,48637,19598,32558,20,33,3,30,0.00,0.00,0.00,0.00
2013-07-15 18:30:00,2,961,25,0.00,2,2,0,2,583,1337,228,934,20,32,6,20,0.00,0.00,0.00,0.00
2013-07-15 18:40:00,2,2649,28,0.00,2,2,0,2,707,6386,2005,1887,20,32,4,30,0.00,0.00,0.00,0.00
2013-07-15 18:50:00,2,1038,22,0.00,2,2,0,2,461,2032,528,801,20,32,4,20,0.00,0.00,0.00,0.00
2013-07-15 19:00:00,2,841,33,0.00,2,2,0,2,556,1160,180,824,32,34,1,32,0.00,0.00,0.00,0.00
2013-07-15 19:10:00,2,799,34,0.00,2,2,0,2,588,942,106,814,34,34,0,34,0.00,0.00,0.00,0.00
2013-07-15 19:20:00,2,978,33,0.00,2,2,0,2,664,1476,257,955,30,34,2,34,0.00,0.00,0.00,0.00
2013-07-15 19:30:00,2,1334,30,0.00,2,2,0,2,718,3504,791,1057,30,30,0,30,0.00,0.00,0.00,0.00
2013-07-15 19:40:00,2,1029,23,0.00,2,2,0,2,627,1350,205,993,20,30,5,20,0.00,0.00,0.00,0.00
2013-07-15 19:50:00,2,965,27,0.00,2,2,0,2,415,1394,333,1106,20,33,5,30,0.00,0.00,0.00,0.00
2013-07-15 20:00:00,2,299,33,0.00,2,2,0,2,248,390,54,278,33,34,0,33,0.00,0.00,0.00,0.00
2013-07-15 20:10:00,2,184,34,0.00,2,2,0,2,141,205,19,190,34,34,0,34,0.00,0.00,0.00,0.00
2013-07-15 20:20:00,2,133,34,0.00,2,2,0,2,123,144,8,130,34,34,0,34,0.00,0.00,0.00,0.00
2013-07-15 20:30:00,2,138,34,0.00,2,2,0,2,126,159,10,136,34,34,0,34,0.00,0.00,0.00,0.00
2013-07-15 20:40:00,2,207,34,0.00,2,2,0,2,137,299,55,194,34,34,0,34,0.00,0.00,0.00,0.00
2013-07-15 20:50:00,2,403,34,0.00,2,2,0,2,294,501,58,392,33,34,0,34,0.00,0.00,0.00,0.00
2013-07-15 21:00:00,2,646,32,0.00,2,2,0,2,439,1016,181,640,32,33,0,32,0.00,0.00,0.00,0.00
2013-07-15 21:10:00,2,22221,31,0.00,2,2,0,2,1371,50000,19297,15717,30,32,1,31,0.00,0.00,0.00,0.00
2013-07-15 21:20:00,2,45924,24,0.00,2,2,0,2,35568,50000,4572,46939,20,30,5,20,0.00,0.00,0.00,0.00
2013-07-15 21:30:00,2,48354,20,0.00,2,2,0,2,40808,50000,2631,49124,20,20,0,20,0.00,0.00,0.00,0.00
2013-07-15 21:40:00,2,46792,20,0.00,2,2,0,2,42006,50000,3175,48186,20,20,0,20,0.00,0.00,0.00,0.00
2013-07-15 21:50:00,2,47967,20,0.00,2,2,0,2,43441,50000,1960,48458,20,20,0,20,0.00,0.00,0.00,0.00
2013-07-15 22:00:00,2,21465,20,0.00,2,2,0,2,2142,50000,21582,6806,20,20,0,20,0.00,0.00,0.00,0.00
2013-07-15 22:10:00,2,527,27,0.00,2,2,0,2,246,968,201,503,20,34,7,27,0.00,0.00,0.00,0.00
2013-07-15 22:20:00,2,328,34,0.00,2,2,0,2,204,503,101,301,34,34,0,34,0.00,0.00,0.00,0.00
2013-07-15 22:30:00,2,283,34,0.00,2,2,0,2,215,353,43,282,34,34,0,34,0.00,0.00,0.00,0.00
2013-07-15 22:40:00,2,336,34,0.00,2,2,0,2,179,576,107,332,34,34,0,34,0.00,0.00,0.00,0.00
2013-07-15 22:50:00,2,538,34,0.00,2,2,0,2,374,747,100,530,34,34,0,34,0.00,0.00,0.00,0.00
2013-07-15 23:00:00,2,293,33,0.00,2,2,0,2,163,373,60,306,33,34,0,33,0.00,0.00,0.00,0.00
2013-07-15 23:10:00,2,240,33,0.00,2,2,0,2,181,331,42,242,33,33,0,33,0.00,0.00,0.00,0.00
2013-07-15 23:20:00,2,162,33,0.00,2,2,0,2,132,197,21,162,33,34,0,33,0.00,0.00,0.00,0.00
2013-07-15 23:30:00,2,265,33,0.00,2,2,0,2,175,411,81,242,33,33,0,33,0.00,0.00,0.00,0.00
2013-07-15 23:40:00,2,232,33,0.00,2,2,0,2,167,357,55,234,33,33,0,33,0.00,0.00,0.00,0.00
2013-07-15 23:50:00,2,214,33,0.00,2,2,0,2,145,340,62,190,33,33,0,33,0.00,0.00,0.00,0.00
